Regional Weather Roundup
Issued by NWS

Home | Current Version | Previous Version | Graphics & Text | Print | Product List | Glossary On
Versions: 1 2 3 4 5 6 7 8 9 10 11 12 13 14 15 16 17 18 19 20 21 22 23 24 25 26 27 28 29 30 31 32 33 34 35 36 37 38 39 40 41 42 43 44 45 46 47 48 49 50
000
ASUS43 KMKX 161210
RWRWI

WISCONSIN REGIONAL WEATHER ROUNDUP
NATIONAL WEATHER SERVICE MILWAUKEE/SULLIVAN WI
600 AM CST MON JAN 16 2017

NOTE: "FAIR" INDICATES FEW OR NO CLOUDS BELOW 12,000 FEET WITH NO
SIGNIFICANT WEATHER AND/OR OBSTRUCTIONS TO VISIBILITY.

WIZ001-002-006>008-014>016-023>028-161300-
NORTHWEST WISCONSIN

CITY           SKY/WX    TMP DP  RH WIND       PRES   REMARKS
SUPERIOR ARPT  CLOUDY    14  12  93 SW6       30.16S FOG     WCI   5
6HR MIN TEMP:  11; 6HR MAX TEMP:  20;

ASHLAND        CLOUDY    19  14  81 S7        30.17S WCI  10
6HR MIN TEMP:  16; 6HR MAX TEMP:  21;

HAYWARD        CLOUDY     1  -4  79 CALM      30.17S
6HR MIN TEMP:   1; 6HR MAX TEMP:   9;

SIREN          CLOUDY     0  -4  82 CALM      30.19R
6HR MIN TEMP:   0; 6HR MAX TEMP:  11;

CUMBERLAND     CLOUDY     3   0  85 CALM      30.18R
RICE LAKE      CLOUDY    -1  -4  85 CALM      30.21S
6HR MIN TEMP:  -2; 6HR MAX TEMP:   2;

CHETEK         CLOUDY    -1  -4  85 CALM      30.20S
6HR MIN TEMP:  -1; 6HR MAX TEMP:   2;

LADYSMITH      CLOUDY     5   2  88 SE3       30.20S
6HR MIN TEMP:   2; 6HR MAX TEMP:  11;

EAU CLAIRE     PTCLDY     5   2  87 N5        30.20F FOG     WCI  -4
6HR MIN TEMP:   4; 6HR MAX TEMP:   9;

MENOMONIE      CLOUDY     5   2  86 CALM      30.20S
6HR MIN TEMP:   3; 6HR MAX TEMP:   9;

NEW RICHMOND   CLOUDY     6   2  85 NE3       30.19R
6HR MIN TEMP:   6; 6HR MAX TEMP:  17;

OSCEOLA        CLOUDY    12  10  92 E3        30.22R
6HR MIN TEMP:  10; 6HR MAX TEMP:  19;

$$

WIZ003>005-009-010-017-018-161300-
NORTH CENTRAL WISCONSIN

CITY           SKY/WX    TMP DP  RH WIND       PRES   REMARKS
MANITOWISH WTR CLOUDY     3   2  94 CALM      30.15S
6HR MIN TEMP:   0; 6HR MAX TEMP:  16;

ARBOR VITAE    CLOUDY     4   1  85 CALM      30.15S
6HR MIN TEMP:   4; 6HR MAX TEMP:  17;

WOODRUFF       CLOUDY     4   1  85 CALM      30.15S
6HR MIN TEMP:   4; 6HR MAX TEMP:  17;

RHINELANDER    CLOUDY    12   9  87 W6        30.16S WCI   3
6HR MIN TEMP:   6; 6HR MAX TEMP:  15;

EAGLE RIVER    CLOUDY     2  -2  82 CALM      30.15S HAZE
6HR MIN TEMP:   2; 6HR MAX TEMP:  15;

LAND O LAKES   CLOUDY    -2  -6  84 S3        30.16S
6HR MIN TEMP:  -2; 6HR MAX TEMP:  14;

PHILLIPS       CLOUDY   N/A N/A N/A CALM      30.17R
TOMAHAWK       CLOUDY    -4  -7  84 CALM      30.18S
6HR MIN TEMP:  -4; 6HR MAX TEMP:   6;

MEDFORD        CLOUDY     2  -2  84 CALM      30.18S
6HR MIN TEMP:   0; 6HR MAX TEMP:  16;

MERRILL        CLOUDY    -5 -10  79 CALM        N/A
6HR MIN TEMP:  -6; 6HR MAX TEMP:  -3;

$$

WIZ029-030-035-036-043>047-161300-
CENTRAL WISCONSIN

CITY           SKY/WX    TMP DP  RH WIND       PRES   REMARKS
WAUSAU         CLOUDY     2  -1  88 CALM      30.20S
6HR MIN TEMP:   1; 6HR MAX TEMP:   5;

MOSINEE        CLEAR     10  10 100 CALM      30.22S
MARSHFIELD     CLOUDY    10   7  87 CALM      30.19F FOG
6HR MIN TEMP:   9; 6HR MAX TEMP:  17;

STEVENS POINT  CLOUDY     3  -1  85 CALM      30.23S
6HR MIN TEMP:  -1; 6HR MAX TEMP:   3;

WAUPACA        CLOUDY    13   9  85 CALM      30.25S
6HR MIN TEMP:   8; 6HR MAX TEMP:  13;

WAUTOMA        PTCLDY    14  12  92 CALM      30.25F
6HR MIN TEMP:   8; 6HR MAX TEMP:  14;

WISC RAPIDS    CLOUDY    10   8  92 CALM      30.23F
6HR MIN TEMP:   7; 6HR MAX TEMP:  11;

CAMP DOUGLAS   PTCLDY    19  15  85 SE5       30.21F WCI  12
6HR MIN TEMP:  10; 6HR MAX TEMP:  19;

$$

WIZ011>013-019>022-031-037>040-048>050-161300-
NORTHEAST WISCONSIN

CITY           SKY/WX    TMP DP  RH WIND       PRES   REMARKS
ANTIGO         CLOUDY     0  -3  88 CALM      30.19R
6HR MIN TEMP:  -4; 6HR MAX TEMP:   2;

SHAWANO        CLOUDY    11   8  85 CALM      30.25R
6HR MIN TEMP:   7; 6HR MAX TEMP:  13;

OCONTO         CLOUDY     6   3  87 CALM      30.25S
6HR MIN TEMP:   5; 6HR MAX TEMP:   8;

STURGEON BAY   CLOUDY    22  15  75 MISG      30.24S
6HR MIN TEMP:  18; 6HR MAX TEMP:  22;

GREEN BAY      CLOUDY    20  15  81 SW6       30.25S WCI  12
6HR MIN TEMP:  16; 6HR MAX TEMP:  20;

MANITOWOC      CLOUDY    15  11  83 CALM      30.27S
6HR MIN TEMP:  10; 6HR MAX TEMP:  15;

APPLETON       MOCLDY    18  10  73 S3        30.23S
CLINTONVILLE   CLOUDY     9   3  78 CALM      30.24S
OSHKOSH        CLOUDY    24  17  74 CALM      30.24F
6HR MIN TEMP:  17; 6HR MAX TEMP:  24;

$$

WIZ032>034-041-042-053>061-161300-
SOUTHWEST WISCONSIN

CITY           SKY/WX    TMP DP  RH WIND       PRES   REMARKS
LA CROSSE      CLOUDY   N/A N/A N/A SE5       30.23S
SPARTA         CLOUDY    15  14  95 CALM      30.23S
6HR MIN TEMP:   8; 6HR MAX TEMP:  15;

VIROQUA        CLOUDY    27  19  73 S5        30.19S WCI  21
6HR MIN TEMP:  23; 6HR MAX TEMP:  28;

BOSCOBEL       FRZ RAIN  28  24  85 NE3       30.24F FOG
6HR MIN TEMP:  19; 6HR MAX TEMP:  28; 6HR PCP:  0.08;

PRAIRIE DU CHI MIX PCPN  28  25  90 CALM      30.22F
6HR MIN TEMP:  21; 6HR MAX TEMP:  28;

PLATTEVILLE    CLOUDY    30  28  94 SE5       30.21F WCI  25
6HR MIN TEMP:  28; 6HR MAX TEMP:  30;

$$

WIZ056-057-062-063-064-067-068-161300-
SOUTH CENTRAL WISCONSIN

CITY           SKY/WX    TMP DP  RH WIND       PRES   REMARKS
REEDSBURG      LGT SNOW  23  20  89 CALM      30.21F
6HR MIN TEMP:  16; 6HR MAX TEMP:  23;

BARABOO/DELLS  FLURRIES  26  20  77 CALM      30.21F
6HR MIN TEMP:  17; 6HR MAX TEMP:  26;

LONE ROCK      MIX PCPN  27  22  81 SE5       30.24F WCI  22
6HR MIN TEMP:  19; 6HR MAX TEMP:  27; 6HR PCP:  0.04;

MINERAL POINT  LGT RAIN  30  28  93 SE8       30.20F WCI  23
MADISON        FRZ RAIN  27  21  78 CALM      30.24F
6HR MIN TEMP:  20; 6HR MAX TEMP:  27; 6HR PCP:  0.02;

MIDDLETON      CLOUDY    28  25  87 CALM      30.24F
6HR MIN TEMP:  22; 6HR MAX TEMP:  28; 6HR PCP:  0.02;

WATERTOWN      CLOUDY    27  21  79 CALM      30.25F
6HR MIN TEMP:  18; 6HR MAX TEMP:  27;

MONROE         MIX PCPN  30  28  93 SE6       30.22S WCI  24
JANESVILLE     MIX PCPN  32  30  93 SE3       30.25S
$$

WIZ051-052-058>065-066-070>072-161300-
SOUTHEAST WISCONSIN

CITY           SKY/WX    TMP DP  RH WIND       PRES   REMARKS
MILWAUKEE      CLOUDY    29  22  75 SW3       30.27F
6HR MIN TEMP:  23; 6HR MAX TEMP:  30;

WAUKESHA       CLOUDY    27  19  74 CALM      30.27S
MILWAUKEE/TIMM CLOUDY    27  21  80 CALM      30.27F
RACINE         MIX PCPN  28  22  78 CALM      30.29F
6HR MIN TEMP:  23; 6HR MAX TEMP:  28; 6HR PCP: TRACE;

KENOSHA        MIX PCPN  29  24  82 CALM      30.27F
6HR MIN TEMP:  23; 6HR MAX TEMP:  29; 6HR PCP: TRACE;

FOND DU LAC    CLOUDY    24  17  74 S6        30.24F WCI  17
6HR MIN TEMP:   8; 6HR MAX TEMP:  24;

SHEBOYGAN      CLOUDY    19  14  81 CALM      30.26S
6HR MIN TEMP:  12; 6HR MAX TEMP:  19;

WEST BEND      CLOUDY    23  21  93 CALM      30.25F
JUNEAU         CLOUDY    23  19  85 E3        30.25F
6HR MIN TEMP:  19; 6HR MAX TEMP:  23;

$$

LSZ147-162-161300-
LAKE SUPERIOR

STATION/POSITION TIME  TEMP    WIND        PRES    WAVE
                       AIR SEA DIR/SP/G            HT/PER
                 (UTC) (F)     (DEG/KT/KT) (MB)    (FT/S)
DEVILS ISLAND    1100   26     220/ 15/ 20 1021.2F
PORT WING        1140   18     160/  6/  8 1021.3S
SAXON HARBOR     1140   22     190/  6/  9 1021.7R
$$

LMZ867-665-643>646-161300-
LAKE MICHIGAN

STATION/POSITION TIME  TEMP    WIND        PRES    WAVE
                       AIR SEA DIR/SP/G            HT/PER
                 (UTC) (F)     (DEG/KT/KT) (MB)    (FT/S)
NORTHPORT PIER   1140   24      CALM  /  4 1023.7R
SISTER BAY       1150   23     290/  7/  9   N/A
KEWAUNEE LAKESHO 1148   22     190/  4/  5 1023.9S
SHEBOYGAN LAKESH 1200   27     22C1F1C2F2C3F3C4F4C5F5C6F6C7F7C8M1C9M2Ca!


USA.gov is the U.S. government's official web portal to all federal, state and local government web resources and services.